Date String (YYYY-MM-DD hh:mm:ss) UTC,Instrument flags,Ambient pressure (hPa),Sample flow (lpm),Bypass flow (lpm),Sample temperature (°C),Ambient temperature (°C),ASC tube jacket temperature (°C),LED temperature (°C),Box temperature (°C),Sample RH (%),Span deviation,Mass concentration (μg/m³),Mass concentration (μg/m³),Mass concentration (μg/m³)
DateTimeUTC,F1_M11,P_M11,Q1_M11,Q2_M11,T1_M11,T2_M11,T3_M11,T4_M11,T5_M11,U1_M11,ZSPAN_M11,X0_M11,X2_M11,X1_M11
2021-10-27 20:00:00,,0822.4,5.01,0.00,27.2,26.0,00.0,36.2,28.8,08.7,0000.0,0001.89,0001.02,0000.67
2021-10-27 20:01:00,,0822.4,4.99,0.00,27.2,26.0,00.0,36.2,28.8,08.8,0000.0,0001.83,0000.99,0000.66
2021-10-27 20:02:00,,0822.4,5.00,0.00,27.2,26.0,00.0,36.2,28.9,08.8,0000.0,0001.75,0000.95,0000.65
2021-10-27 20:03:00,,0822.2,5.00,0.00,27.2,26.1,00.0,36.2,28.9,08.8,0000.0,0002.60,0000.92,0000.64
2021-10-27 20:04:00,,0822.2,5.00,0.00,27.2,26.1,00.0,36.2,28.9,08.8,0000.0,0002.67,0000.92,0000.64
2021-10-27 20:05:00,,0822.2,4.99,0.00,27.2,26.1,00.0,36.3,28.9,08.8,0000.0,0002.79,0000.96,0000.64
2021-10-27 20:06:00,,0822.1,5.00,0.00,27.2,26.1,00.0,36.3,28.9,08.8,0000.0,0003.03,0001.05,0000.65
2021-10-27 20:07:00,,0822.2,5.01,0.00,27.2,26.2,00.0,36.3,28.9,08.7,0000.0,0003.28,0001.12,0000.65
2021-10-27 20:08:00,,0822.2,5.00,0.00,27.2,26.2,00.0,36.3,28.9,08.8,0000.0,0003.34,0001.14,0000.66
2021-10-27 20:09:00,,0822.1,5.00,0.00,27.2,26.2,00.0,36.3,29.0,08.8,0000.0,0003.31,0001.16,0000.66
2021-10-27 20:10:00,,0822.2,5.01,0.00,27.2,26.1,00.0,36.3,28.9,08.7,0000.0,0003.30,0001.15,0000.67
2021-10-27 20:11:00,,0822.1,4.98,0.00,27.2,26.1,00.0,36.3,28.9,08.6,0000.0,0004.30,0001.36,0000.69
2021-10-27 20:12:00,,0822.2,5.00,0.00,27.2,26.1,00.0,36.3,28.9,08.6,0000.0,0004.87,0001.43,0000.70
2021-10-27 20:13:00,,0822.2,4.99,0.00,27.2,26.1,00.0,36.3,28.9,08.7,0000.0,0005.02,0001.46,0000.70
2021-10-27 20:14:00,,0822.1,5.01,0.00,27.2,26.1,00.0,36.3,28.9,08.7,0000.0,0005.09,0001.46,0000.70
2021-10-27 20:15:00,,0822.1,4.98,0.00,27.2,26.1,00.0,36.3,28.9,08.7,0000.0,0005.13,0001.49,0000.70
2021-10-27 20:16:00,,0822.0,4.99,0.00,27.2,26.1,00.0,36.3,28.9,08.8,0000.0,0005.01,0001.44,0000.70
2021-10-27 20:17:00,,0822.0,5.01,0.00,27.3,26.1,00.0,36.3,28.9,08.7,0000.0,0004.62,0001.32,0000.69
2021-10-27 20:18:00,,0822.0,5.01,0.00,27.3,26.1,00.0,36.3,29.0,08.8,0000.0,0004.54,0001.28,0000.69
2021-10-27 20:19:00,,0822.1,5.00,0.00,27.3,26.2,00.0,36.3,29.0,08.8,0000.0,0004.59,0001.30,0000.69
2021-10-27 20:20:00,,0822.1,5.00,0.00,27.3,26.1,00.0,36.3,29.0,08.8,0000.0,0004.85,0001.26,0000.68
2021-10-27 20:21:00,,0822.0,5.00,0.00,27.3,26.1,00.0,36.3,29.0,08.8,0000.0,0005.36,0001.24,0000.68
2021-10-27 20:22:00,,0822.0,5.00,0.00,27.3,26.2,00.0,36.3,29.0,08.7,0000.0,0004.31,0001.03,0000.65
2021-10-27 20:23:00,,0822.1,5.00,0.00,27.3,26.2,00.0,36.3,29.0,08.8,0000.0,0003.79,0000.97,0000.65
2021-10-27 20:24:00,,0822.1,4.99,0.00,27.3,26.2,00.0,36.3,29.0,08.9,0000.0,0003.58,0000.94,0000.65
2021-10-27 20:25:00,,0822.0,5.00,0.00,27.3,26.1,00.0,36.3,28.9,08.8,0000.0,0002.75,0000.94,0000.65
2021-10-27 20:26:00,,0822.1,5.02,0.00,27.3,26.1,00.0,36.3,28.9,08.8,0000.0,0002.52,0000.91,0000.65
2021-10-27 20:27:00,,0821.9,5.00,0.00,27.3,26.1,00.0,36.3,29.0,08.9,0000.0,0002.70,0000.91,0000.66
2021-10-27 20:28:00,,0821.7,5.00,0.00,27.3,26.2,00.0,36.3,29.0,08.8,0000.0,0003.34,0000.95,0000.66
2021-10-27 20:29:00,,0821.8,4.98,0.00,27.3,26.2,00.0,36.4,29.0,08.7,0000.0,0004.23,0001.00,0000.68
2021-10-27 20:30:00,,0821.9,5.01,0.00,27.3,26.2,00.0,36.4,29.0,08.7,0000.0,0004.26,0001.00,0000.68
2021-10-27 20:31:00,,0822.0,5.00,0.00,27.3,26.2,00.0,36.4,29.0,08.8,0000.0,0003.98,0001.00,0000.68
2021-10-27 20:32:00,,0821.8,5.00,0.00,27.3,26.2,00.0,36.4,29.0,08.8,0000.0,0003.47,0000.99,0000.68
2021-10-27 20:33:00,,0821.9,4.99,0.00,27.3,26.2,00.0,36.4,29.0,08.8,0000.0,0003.65,0001.03,0000.69
2021-10-27 20:34:00,,0821.8,5.01,0.00,27.3,26.2,00.0,36.4,29.0,08.8,0000.0,0003.72,0001.05,0000.69
2021-10-27 20:35:00,,0822.0,4.98,0.00,27.3,26.2,00.0,36.4,29.0,08.8,0000.0,0003.94,0001.10,0000.70
2021-10-27 20:36:00,,0821.9,5.01,0.00,27.3,26.2,00.0,36.4,29.0,08.8,0000.0,0004.16,0001.15,0000.71
2021-10-27 20:37:00,,0822.0,5.00,0.00,27.3,26.2,00.0,36.4,29.0,08.8,0000.0,0004.54,0001.19,0000.71
2021-10-27 20:38:00,,0822.0,5.00,0.00,27.3,26.2,00.0,36.4,29.0,08.8,0000.0,0004.48,0001.18,0000.70
2021-10-27 20:39:00,,0822.0,5.00,0.00,27.3,26.2,00.0,36.4,29.0,08.8,0000.0,0004.08,0001.15,0000.70
2021-10-27 20:40:00,,0821.8,4.99,0.00,27.3,26.2,00.0,36.4,28.9,08.8,0000.0,0002.82,0001.10,0000.69
2021-10-27 20:41:00,,0821.8,5.01,0.00,27.3,26.2,00.0,36.4,29.0,08.7,0000.0,0002.68,0001.05,0000.68
2021-10-27 20:42:00,,0821.8,5.01,0.00,27.3,26.2,00.0,36.4,29.0,08.7,0000.0,0002.74,0001.05,0000.69
2021-10-27 20:43:00,,0821.8,5.00,0.00,27.3,26.2,00.0,36.4,29.0,08.6,0000.0,0003.44,0001.06,0000.70
2021-10-27 20:44:00,,0821.9,5.00,0.00,27.3,26.2,00.0,36.4,29.0,08.7,0000.0,0003.55,0001.04,0000.69
2021-10-27 20:45:00,,0821.8,5.01,0.00,27.3,26.1,00.0,36.4,29.0,08.7,0000.0,0003.58,0001.03,0000.69
2021-10-27 20:46:00,,0821.8,4.99,0.00,27.3,26.2,00.0,36.4,29.1,08.7,0000.0,0003.40,0001.00,0000.69
2021-10-27 20:47:00,,0822.0,5.01,0.00,27.3,26.2,00.0,36.4,29.0,08.7,0000.0,0003.23,0000.98,0000.69
2021-10-27 20:48:00,,0821.9,4.98,0.00,27.3,26.2,00.0,36.4,29.0,08.6,0000.0,0002.82,0000.97,0000.70
2021-10-27 20:49:00,,0822.1,5.01,0.00,27.3,26.2,00.0,36.4,29.0,08.5,0000.0,0002.76,0000.97,0000.71
2021-10-27 20:50:00,,0822.1,5.00,0.00,27.3,26.2,00.0,36.4,29.0,08.6,0000.0,0002.73,0000.96,0000.71
2021-10-27 20:51:00,,0822.0,4.99,0.00,27.3,26.2,00.0,36.4,29.0,08.6,0000.0,0002.69,0000.95,0000.70
2021-10-27 20:52:00,,0821.9,5.01,0.00,27.3,26.2,00.0,36.4,29.0,08.6,0000.0,0002.70,0000.95,0000.70
2021-10-27 20:53:00,,0821.8,4.98,0.00,27.3,26.2,00.0,36.4,29.0,08.6,0000.0,0002.58,0000.93,0000.70
2021-10-27 20:54:00,,0821.8,5.01,0.00,27.3,26.2,00.0,36.4,29.0,08.6,0000.0,0001.88,0000.90,0000.70
2021-10-27 20:55:00,,0821.8,5.01,0.00,27.3,26.2,00.0,36.4,29.1,08.5,0000.0,0001.49,0000.89,0000.70
2021-10-27 20:56:00,,0821.7,4.99,0.00,27.3,26.2,00.0,36.4,29.0,08.6,0000.0,0001.37,0000.87,0000.70
2021-10-27 20:57:00,,0821.7,5.00,0.00,27.4,26.2,00.0,36.4,29.1,08.6,0000.0,0002.37,0000.87,0000.69
2021-10-27 20:58:00,,0821.8,5.00,0.00,27.4,26.3,00.0,36.4,29.0,08.6,0000.0,0003.13,0000.86,0000.69
2021-10-27 20:59:00,,0821.8,5.00,0.00,27.3,26.3,00.0,36.4,29.0,08.5,0000.0,0003.60,0000.82,0000.68
